Flag for South Korea Weather past 2 weeks in Busan, South Korea

Now
72 °F

Light rain. Fog.


Feels Like: 67 °F
Forecast: 73 / 78 °F
Wind: 1 mph from West

Location: Pusan / Kimhae International Airport

Current Time: Sep 3, 2014 at 7:18:26 AM

Latest Report: Sep 3, 2014 at 7:00 AM


Visibility: 2 mi

Pressure: 29.68 "Hg

Humidity: 94%

Dew point: 70 °F

Location of BusanLocation

Historic Weather in Busan — Graph

°F

Busan temperature yesterday

Maximum temperature yesterday: 79 °F (at 2:00 PM)
Minimum temperature yesterday: 66 °F (at 2:00 AM)
Average temperature yesterday: 72 °F

Past Weeks' High & Low Weather Summary

 TemperatureHumidityPressure
High88 °F (Aug 23, 1:00 PM)94% (Aug 19, 7:00 AM)30.07 "Hg (Aug 19, 7:00 AM)
Low64 °F (Aug 30, 6:00 AM)48% (Sep 1, 1:00 PM)29.65 "Hg (Aug 25, 2:00 PM)
Average75 °F79%29.88 "Hg
* Reported Aug 19 6:00 AM — Sep 3 6:00 AM, Busan, Weather by CustomWeather, © 2014

Note: Actual official high and low records may vary slightly from our data, if they occured in-between our weather recording intervals... More about our weather records

Advertising

Busan weather history for previous 24 hours

 ConditionsComfort  
Time TempWeatherWind HumidityBarometerVisibility
6:00 AM
Sep 3
72 °FLight rain. Fog.1 mph88%29.68 "Hg2 mi
5:00 AM70 °FLight rain. Fog.1 mph94%29.68 "Hg2 mi
12:00 AM73 °FLight rain. Fog.9 mph78%29.80 "Hg3 mi
11:00 PM
Sep 2
73 °FLight rain. Mostly cloudy.9 mph78%29.80 "Hg4 mi
10:00 PM73 °FLight rain. Mostly cloudy.13 mph74%29.83 "HgN/A
9:00 PM72 °FLight rain. Passing clouds.14 mph78%29.83 "HgN/A
8:00 PM72 °FLight rain. Passing clouds.9 mph78%29.86 "HgN/A
7:00 PM72 °FLight rain. Partly cloudy.7 mph78%29.86 "HgN/A
6:00 PM73 °FLight rain. Broken clouds.9 mph69%29.86 "HgN/A
5:00 PM77 °FBroken clouds.12 mph57%29.86 "HgN/A
4:00 PM79 °FBroken clouds.12 mph54%29.86 "HgN/A
3:00 PM79 °FPartly sunny.12 mph61%29.89 "HgN/A
2:00 PM79 °FPartly sunny.10 mph61%29.89 "HgN/A
1:00 PM77 °FPartly sunny.13 mph61%29.92 "HgN/A
12:00 PM77 °FBroken clouds.13 mph65%29.92 "HgN/A
11:00 AM77 °FBroken clouds.13 mph61%29.95 "HgN/A
10:00 AM75 °FBroken clouds.9 mph69%29.95 "HgN/A
9:00 AM75 °FPartly sunny.9 mph69%29.95 "HgN/A
8:00 AM70 °FPartly sunny.3 mph83%29.95 "HgN/A
7:00 AM68 °FPartly sunny.3 mph83%29.95 "HgN/A
Weather by CustomWeather, © 2014

See weather overviewHow to use our weather pages